[[{"header":{"parameterUnit":"m.s-1","parameterCategory":1,"la1":30.2992,"la2":30.254,"lo1":-89.0895,"lo2":-89.0443,"dy":0.0025,"dx":0.0025,"nx":19,"ny":19,"refTime":"2026-04-21T21:00:00:Z","depth":0,"parameterNumber":2,"parameterNumberName":"U-component_of_WINDS"},"data":[0,0,0,-4.2783,-4.2783,-4.2815,-4.2815,-4.2863,-4.2864,0,0,0,0,0,0,0,0,0,0,0,-4.2777,-4.2778,-4.2782,-4.2783,-4.2815,-4.2815,-4.2863,-4.2864,0,0,0,0,0,0,0,0,0,0,0,-4.2777,-4.2777,-4.2778,-4.2784,-4.2815,-4.2815,-4.2863,-4.2836,0,0,0,0,0,0,0,0,0,0,-4.2804,-4.2803,-4.2777,-4.2778,-4.2784,-4.2815,-4.2815,-4.2835,-4.2838,-4.2852,0,-4.2865,0,-4.2865,-4.2867,-4.2867,0,0,0,-4.278,-4.28,-4.2806,-4.2778,-4.2784,-4.2815,-4.28,-4.2837,-4.284,-4.2856,-4.2865,-4.2867,-4.2866,-4.2868,-4.2868,-4.2957,-4.2958,0,0,-4.2778,-4.2785,-4.2803,-4.2808,-4.2803,-4.2799,-4.2801,-4.2838,-4.2849,-4.2865,-4.2868,-4.2867,-4.2868,-4.2868,-4.2957,-4.2957,0,0,0,-4.2776,-4.2784,-4.2788,-4.2806,-4.2812,-4.28,-4.2802,-4.2848,-4.2848,-4.2868,-4.2867,-4.2868,-4.2869,-4.2956,-4.2957,-4.299,0,0,0,-4.2774,-4.2782,-4.2787,-4.2791,-4.2811,-4.283,-4.2811,-4.2846,-4.285,-4.2867,-4.2868,-4.2869,-4.2955,-4.2957,-4.2988,-4.3004,0,0,0,-4.2774,-4.2782,-4.2788,-4.2792,-4.2806,-4.2829,-4.2832,-4.2847,-4.2849,-4.2867,-4.287,-4.2955,-4.2956,-4.2986,-4.3001,-4.3029,0,0,0,-4.2775,-4.2817,-4.2789,-4.2836,-4.2805,-4.285,-4.2832,-4.2865,-4.2884,-4.2868,-4.2956,-4.2957,-4.2985,-4.2999,-4.3027,-4.3052,-4.3064,0,0,-4.2831,-4.2824,-4.2851,-4.2827,-4.2878,-4.2845,-4.2901,-4.2913,-4.2909,-4.2941,-4.2944,-4.2989,-4.3001,-4.3028,-4.3131,-4.314,0,0,0,-4.2871,-4.2891,-4.2903,-4.2922,-4.2933,-4.2944,-4.2946,-4.2951,-4.2979,-4.2927,-4.3007,-4.3014,-4.303,-4.3042,-4.305,-4.3063,-4.2963,-4.2963,-4.2963,-4.2959,-4.2953,-4.2997,-4.2995,-4.3014,-4.3018,-4.3033,-4.304,-4.3027,-4.3046,-4.3055,-4.3118,-4.3132,-4.3138,-4.3152,-4.307,-4.307,-4.307,-4.307,-4.304,-4.3066,-4.3051,-4.3088,-4.3081,-4.3113,-4.3119,-4.3109,-4.3137,-4.311,-4.3124,-4.3094,-4.3148,-4.316,-4.3072,-4.3072,-4.3072,-4.3071,-4.3071,-4.3095,-4.3106,-4.3113,-4.3141,-4.3164,-4.3161,-4.3189,-4.3182,-4.3176,-4.319,-4.3198,-4.3197,-4.3194,-4.3195,-4.3195,-4.3195,-4.3195,-4.3195,-4.3196,-4.3149,-4.3155,-4.3179,-4.3196,-4.3208,-4.3223,-4.3229,-4.3241,-4.3252,-4.3245,-4.3245,-4.323,-4.3156,-4.3136,-4.3199,-4.3198,-4.3198,-4.3198,-4.3197,-4.323,-4.3211,-4.3249,-4.3261,-4.3281,-4.3304,-4.3296,-4.3321,-4.333,-4.3344,-4.3328,-4.3275,-4.3266,-4.326,-4.3243,-4.333,-4.333,-4.333,-4.333,-4.3275,-4.3271,-4.3308,-4.3329,-4.3348,-4.3346,-4.3389,-4.3395,-4.3398,-4.3403,-4.339,-4.3369,-4.3363,-4.3357,-4.3349,-4.3333,-4.3441,-4.3441,-4.3441,-4.3324,-4.3322,-4.3359,-4.3363,-4.3378,-4.3392,-4.3432,-4.3456,-4.3456,-4.3446,-4.3407,-4.3402,-4.3367,-4.3357,-4.3342,-4.3329,-4.3301,0,0]},{"header":{"parameterUnit":"m.s-1","parameterCategory":1,"la1":30.2992,"la2":30.254,"lo1":-89.0895,"lo2":-89.0443,"dy":0.0025,"dx":0.0025,"nx":19,"ny":19,"refTime":"2026-04-21T21:00:00:Z","depth":0,"parameterNumber":3,"parameterNumberName":"V-component_of_WINDS"},"data":[0,0,0,3.7078,3.7079,3.7119,3.7119,3.716,3.716,0,0,0,0,0,0,0,0,0,0,0,3.706,3.706,3.7078,3.7079,3.7119,3.7119,3.716,3.716,0,0,0,0,0,0,0,0,0,0,0,3.706,3.706,3.706,3.7079,3.7119,3.7119,3.716,3.7133,0,0,0,0,0,0,0,0,0,0,3.7096,3.7073,3.706,3.706,3.7079,3.7119,3.7119,3.7132,3.7135,3.7137,0,3.7138,0,3.715,3.7163,3.7163,0,0,0,3.7083,3.707,3.7087,3.706,3.7079,3.7119,3.7102,3.7134,3.7137,3.7141,3.7139,3.7141,3.7151,3.7163,3.7163,3.7165,3.7165,0,0,3.7081,3.7063,3.7085,3.7089,3.7083,3.7101,3.7103,3.7136,3.7132,3.7139,3.7142,3.7151,3.7163,3.7163,3.7165,3.7165,0,0,0,3.7072,3.7061,3.7078,3.7087,3.7095,3.7102,3.7105,3.7131,3.7138,3.7142,3.7152,3.7163,3.7164,3.7165,3.7165,3.7139,0,0,0,3.707,3.7056,3.7077,3.7066,3.7094,3.7113,3.7098,3.7135,3.714,3.7152,3.7163,3.7164,3.7165,3.7165,3.714,3.7128,0,0,0,3.7059,3.7055,3.7058,3.7065,3.7082,3.7113,3.7122,3.7137,3.7145,3.7163,3.7164,3.7166,3.7165,3.7141,3.713,3.7125,0,0,0,3.7041,3.7032,3.7058,3.7052,3.7081,3.7097,3.7122,3.7134,3.7146,3.7163,3.7165,3.7165,3.7141,3.7131,3.7126,3.7117,3.7111,0,0,3.702,3.7029,3.7027,3.7051,3.7058,3.7092,3.7096,3.7122,3.714,3.7155,3.7156,3.7139,3.713,3.7125,3.7087,3.7083,0,0,0,3.7015,3.7013,3.7019,3.703,3.7052,3.707,3.7099,3.711,3.7125,3.7144,3.7136,3.7132,3.7129,3.7126,3.7122,3.7121,3.7163,3.7163,3.7163,3.6957,3.6982,3.6981,3.7012,3.7023,3.7055,3.7066,3.7086,3.7105,3.7104,3.7108,3.7082,3.7077,3.7075,3.7074,3.7105,3.7105,3.7105,3.7105,3.6928,3.693,3.6961,3.6971,3.6998,3.7006,3.7037,3.7052,3.7064,3.708,3.7079,3.7095,3.7069,3.707,3.7103,3.7104,3.7104,3.7104,3.7104,3.6893,3.6899,3.6913,3.6935,3.6949,3.698,3.6992,3.7015,3.7037,3.7036,3.7044,3.7045,3.7049,3.7039,3.7039,3.7039,3.7038,3.7038,3.7038,3.685,3.6868,3.6875,3.69,3.6913,3.6931,3.6966,3.6978,3.6998,3.7014,3.7015,3.7035,3.7062,3.7069,3.7037,3.7037,3.7037,3.7038,3.7038,3.6811,3.6825,3.6835,3.6848,3.6881,3.6894,3.6925,3.6949,3.6963,3.6968,3.6991,3.7007,3.7017,3.702,3.7026,3.6985,3.6985,3.6985,3.6985,3.6781,3.679,3.6808,3.6826,3.6848,3.6878,3.689,3.6918,3.6948,3.6959,3.6969,3.6978,3.698,3.6989,3.6993,3.6998,3.6952,3.6952,3.6952,3.6758,3.6771,3.6776,3.6808,3.6837,3.6861,3.6874,3.6895,3.6932,3.6951,3.6968,3.6969,3.6985,3.6988,3.7006,3.7011,3.7021,0,0]}]]